TimeEDT,TemperatureF,Dew PointF,Humidity,Sea Level PressureIn,VisibilityMPH,Wind Direction,Wind SpeedMPH,Gust SpeedMPH,PrecipitationIn,Events,Conditions,WindDirDegrees,DateUTC
12:54 AM,66.9,52.0,59,30.01,10.0,NNW,8.1,-,N/A,,Clear,330,2013-08-11 04:54:00
1:54 AM,66.0,52.0,60,30.03,10.0,NNW,5.8,-,N/A,,Clear,340,2013-08-11 05:54:00
2:54 AM,66.0,50.0,56,30.04,10.0,NNW,3.5,-,N/A,,Clear,330,2013-08-11 06:54:00
3:54 AM,64.9,50.0,58,30.04,10.0,NW,4.6,-,N/A,,Clear,320,2013-08-11 07:54:00
4:54 AM,64.0,51.1,63,30.05,10.0,WNW,5.8,-,N/A,,Clear,290,2013-08-11 08:54:00
5:54 AM,63.0,52.0,67,30.06,10.0,West,5.8,-,N/A,,Clear,280,2013-08-11 09:54:00
6:54 AM,64.9,51.1,61,30.08,10.0,Variable,5.8,-,N/A,,Clear,0,2013-08-11 10:54:00
7:54 AM,68.0,51.1,55,30.07,10.0,West,5.8,-,N/A,,Clear,270,2013-08-11 11:54:00
8:54 AM,70.0,52.0,53,30.08,10.0,West,9.2,-,N/A,,Clear,270,2013-08-11 12:54:00
9:54 AM,73.0,50.0,44,30.08,10.0,West,6.9,-,N/A,,Partly Cloudy,280,2013-08-11 13:54:00
10:54 AM,75.0,46.9,37,30.07,10.0,WNW,5.8,-,N/A,,Partly Cloudy,300,2013-08-11 14:54:00
11:54 AM,75.9,48.0,37,30.06,10.0,West,8.1,-,N/A,,Scattered Clouds,260,2013-08-11 15:54:00
12:54 PM,77.0,48.9,37,30.05,10.0,West,4.6,16.1,N/A,,Partly Cloudy,280,2013-08-11 16:54:00
1:54 PM,78.1,50.0,37,30.03,10.0,West,5.8,-,N/A,,Partly Cloudy,270,2013-08-11 17:54:00
2:54 PM,79.0,48.9,35,30.03,10.0,Variable,5.8,17.3,N/A,,Scattered Clouds,0,2013-08-11 18:54:00
3:54 PM,80.1,51.1,36,30.02,10.0,NW,6.9,-,N/A,,Scattered Clouds,310,2013-08-11 19:54:00
4:54 PM,80.1,51.1,36,30.01,10.0,West,10.4,16.1,N/A,,Scattered Clouds,270,2013-08-11 20:54:00
5:54 PM,77.0,54.0,45,30.00,10.0,South,4.6,-,N/A,,Scattered Clouds,170,2013-08-11 21:54:00
6:54 PM,77.0,52.0,42,30.00,10.0,West,4.6,-,N/A,,Scattered Clouds,260,2013-08-11 22:54:00
7:54 PM,77.0,51.1,40,30.00,10.0,West,10.4,-,N/A,,Partly Cloudy,260,2013-08-11 23:54:00
8:54 PM,75.0,53.1,46,30.01,10.0,SW,6.9,-,N/A,,Partly Cloudy,230,2013-08-12 00:54:00
9:54 PM,73.0,55.0,53,30.03,10.0,WSW,9.2,-,N/A,,Partly Cloudy,240,2013-08-12 01:54:00
10:54 PM,70.0,57.0,63,30.03,10.0,SW,11.5,-,N/A,,Clear,230,2013-08-12 02:54:00
11:54 PM,69.1,57.9,68,30.03,10.0,SW,10.4,-,N/A,,Partly Cloudy,230,2013-08-12 03:54:00